This demonstration page uses our WeatherBlox Daily Observations layout. Learn more.

Left ArrowRight Arrow

Hourly Observations for March 16, 2016

Temp ( °F °C ) Dew Point ( °F °C ) Humidity (%) Winds ( mph kmh ) Pressure ( in mb ) Visibility ( mi km ) Precip ( " mm )
12:53 am 00:53 Clear 70 21.1 51 10.6 51 51 SSE 8 13 29.55 1001 10 16 N/A
1:53 am 01:53 Clear 69 20.6 51 10.6 53 53 VRB 5 7 29.54 1001 10 16 N/A
2:53 am 02:53 Mostly Cloudy 69 20.6 52 11.1 55 55 N N/A 29.54 1000 10 16 N/A
3:53 am 03:53 Clear 71 21.7 53 11.7 53 53 SW 8 13 29.54 1000 10 16 N/A
4:53 am 04:53 Mostly Cloudy 69 20.6 54 12.2 59 59 W 13 20 29.56 1001 10 16 N/A
5:53 am 05:53 Mostly Cloudy 65 18.3 52 11.1 63 63 W 14 22 29.61 1003 10 16 N/A
6:53 am 06:53 Mostly Cloudy 62 16.7 49 9.4 62 62 W 15 24 29.65 1004 10 16 N/A
7:53 am 07:53 Mostly Cloudy 60 15.6 47 8.3 62 62 W 15 24 29.70 1006 10 16 N/A
8:53 am 08:53 Sunny 58 14.4 40 4.4 51 51 WSW 17 28 29.75 1007 10 16 N/A
9:53 am 09:53 Sunny 59 15 41 5 51 51 WSW 21 33 29.78 1008 10 16 N/A
10:53 am 10:53 Mostly Sunny 60 15.6 41 5 50 50 WSW 17 28 29.80 1009 10 16 N/A
11:53 am 11:53 Mostly Cloudy 61 16.1 39 3.9 44 44 WSW 18 30 29.82 1010 10 16 N/A
12:53 pm 12:53 Partly Cloudy 61 16.1 38 3.3 43 43 WSW 18 30 29.83 1010 10 16 N/A
1:53 pm 13:53 Partly Cloudy 63 17.2 35 1.7 35 35 WSW 18 30 29.85 1011 10 16 N/A
2:53 pm 14:53 Mostly Sunny 63 17.2 35 1.7 35 35 WSW 16 26 29.85 1011 10 16 N/A
3:53 pm 15:53 Mostly Sunny 64 17.8 32 undefined 30 30 WSW 16 26 29.85 1011 10 16 N/A
4:53 pm 16:53 Mostly Cloudy 63 17.2 31 -0.6 30 30 WSW 21 33 29.87 1011 10 16 N/A
5:53 pm 17:53 Mostly Cloudy 62 16.7 31 -0.6 31 31 WSW 20 31 29.89 1012 10 16 N/A
6:53 pm 18:53 Partly Cloudy 61 16.1 32 undefined 34 34 W 15 24 29.90 1012 10 16 N/A
7:53 pm 19:53 Clear 59 15 32 undefined 36 36 WSW 8 13 29.91 1013 10 16 N/A
8:53 pm 20:53 Clear 57 13.9 35 1.7 44 44 WSW 6 9 29.92 1013 10 16 N/A
9:53 pm 21:53 Clear 55 12.8 34 1.1 45 45 W 5 7 29.93 1013 10 16 N/A
10:53 pm 22:53 Clear 53 11.7 34 1.1 48 48 WSW 3 6 29.93 1014 10 16 N/A
11:53 pm 23:53 Clear 52 11.1 36 2.2 55 55 WSW 5 7 29.93 1014 10 16 N/A

Powered by AerisWeather